Change the Weather History Date:

Wednesday, October 23, 2013

  Actual Average Record
Temperature  
Mean Temperature 44 °F -  
Max Temperature 48 °F 53 °F 61 °F (2007)
Min Temperature 39 °F 40 °F 36 °F (1997)
Degree Days  
Heating Degree Days 22    
Moisture  
Dew Point 44 °F    
Average Humidity 97    
Maximum Humidity 100    
Minimum Humidity 92    
Precipitation  
Precipitation 0.01 in - - ()
Sea Level Pressure  
Sea Level Pressure 30.05 in    
Wind  
Wind Speed 2 mph (WNW)    
Max Wind Speed 5 mph    
Max Gust Speed -    
Visibility 1 miles    
Events Fog    
Averages and records for this station are not official NWS values.
T = Trace of Precipitation, MM = Missing Value Source: NWS Daily Summary

Daily Weather History Graph

Daily Weather History Graph

Search for Another Location

Airport or City:

Trip Planner

Search our weather history database for the weather conditions in past years. The results will help you decide how hot, cold, wet, or windy it might be!

Date:

Astronomy

Oct. 23, 2013 Rise Set
Actual Time 7:42 AM PDT 6:05 PM PDT
Civil Twilight 7:10 AM PDT 6:38 PM PDT
Nautical Twilight 6:34 AM PDT 7:14 PM PDT
Astronomical Twilight 5:58 AM PDT 7:50 PM PDT
Moon 9:30 PM PDT (10/23) 12:16 PM PDT (10/23)
Length of Visible Light 11h 27m
Length of Day
10h 23m
Waning Gibbous, 78% of the Moon is Illuminated
Oct 23
Waning Gibbous
Oct 26
Last Quarter
Nov 3
New
Nov 9
First Quarter
Nov 17
Full

Hourly Weather History & Observations

Time (PDT) Temp. Windchill Dew Point Humidity Pressure Visibility Wind Dir Wind Speed Gust Speed Precip Events Conditions
12:56 AM 45.0 °F - 44.1 °F 97% 30.07 in 0.1 mi Calm Calm - 0.00 in Fog Light Drizzle
1:56 AM 44.1 °F 42.5 °F 44.1 °F 100% 30.07 in 0.1 mi NNW 3.5 mph - 0.00 in Fog Light Drizzle
2:56 AM 44.1 °F - 43.0 °F 96% 30.07 in 0.1 mi Calm Calm - 0.00 in Fog Light Drizzle
3:56 AM 45.0 °F - 43.0 °F 93% 30.06 in 0.1 mi Calm Calm - 0.00 in Fog Light Drizzle
4:56 AM 45.0 °F 43.5 °F 44.1 °F 97% 30.06 in 0.1 mi NW 3.5 mph - 0.01 in Fog Light Drizzle
5:56 AM 45.0 °F - 44.1 °F 97% 30.06 in 0.1 mi Calm Calm - 0.00 in Fog Fog
6:26 AM 44.6 °F - 44.6 °F 100% 30.05 in 0.1 mi Calm Calm - 0.00 in Fog Light Drizzle
6:56 AM 45.0 °F - 44.1 °F 97% 30.06 in 0.1 mi Calm Calm - 0.00 in Fog Fog
7:56 AM 44.1 °F - 44.1 °F 100% 30.07 in 0.1 mi Calm Calm - N/A Fog Fog
8:56 AM 45.0 °F - 44.1 °F 97% 30.08 in 0.1 mi Calm Calm - N/A Fog Fog
9:56 AM 45.0 °F 43.5 °F 44.1 °F 97% 30.09 in 0.1 mi NW 3.5 mph - N/A Fog Fog
10:56 AM 46.0 °F 44.8 °F 45.0 °F 96% 30.09 in 0.1 mi WNW 3.5 mph - 0.00 in Fog Light Drizzle
11:37 AM 46.4 °F 45.2 °F 44.6 °F 93% 30.07 in 0.1 mi West 3.5 mph - 0.00 in Fog Fog
11:56 AM 46.0 °F - 46.0 °F 100% 30.09 in 0.1 mi Calm Calm - 0.00 in Fog Fog
12:56 PM 46.9 °F - 46.0 °F 97% 30.07 in 0.1 mi WNW 3.5 mph - N/A Fog Fog
1:56 PM 46.9 °F - 46.0 °F 97% 30.06 in 0.1 mi West 4.6 mph - N/A Fog Fog
2:56 PM 46.9 °F - 46.0 °F 97% 30.04 in 0.1 mi WNW 4.6 mph - N/A Fog Fog
3:35 PM 46.4 °F 44.3 °F 46.4 °F 100% 30.02 in 0.1 mi NW 4.6 mph - N/A Fog Fog
3:56 PM 46.0 °F 44.8 °F 45.0 °F 96% 30.03 in 0.1 mi WNW 3.5 mph - N/A   Mostly Cloudy
4:56 PM 45.0 °F 43.5 °F 44.1 °F 97% 30.02 in 0.1 mi WNW 3.5 mph - N/A   Mostly Cloudy
5:24 PM 44.6 °F 42.2 °F 44.6 °F 100% 30.01 in 0.1 mi WNW 4.6 mph - N/A   Mostly Cloudy
5:49 PM 44.6 °F 42.2 °F 44.6 °F 100% 30.00 in 0.1 mi WNW 4.6 mph - N/A Fog Fog
5:56 PM 45.0 °F 42.6 °F 44.1 °F 97% 30.01 in 0.1 mi WNW 4.6 mph - N/A Fog Fog
6:56 PM 44.1 °F - 42.1 °F 93% 30.02 in 0.1 mi Calm Calm - N/A Fog Fog
7:56 PM 41.0 °F 39.0 °F 39.9 °F 96% 30.03 in 0.1 mi SSE 3.5 mph - N/A Fog Fog
8:15 PM 42.8 °F - 41.0 °F 93% 30.02 in 8.0 mi Calm Calm - N/A Fog Shallow Fog
8:56 PM 41.0 °F - 39.9 °F 96% 30.03 in 8.0 mi Calm Calm - N/A Fog Patches of Fog
9:56 PM 42.1 °F - 39.9 °F 92% 30.04 in 8.0 mi Calm Calm - N/A Fog Patches of Fog
10:56 PM 42.1 °F - 41.0 °F 96% 30.05 in 8.0 mi Calm Calm - N/A Fog Patches of Fog
11:56 PM 39.9 °F - 39.0 °F 97% 30.05 in 7.0 mi Calm Calm - N/A Fog Patches of Fog